Weather History for EGLL - December, 2010

Change the Weather History Date:

Thursday, December 23, 2010

  Actual Average Record
Temperature  
Mean Temperature 33 °F -  
Max Temperature 36 °F 45 °F 55 °F (1997)
Min Temperature 30 °F 35 °F 26 °F (2001)
Degree Days  
Heating Degree Days 32    
Moisture  
Dew Point 27 °F    
Average Humidity 75    
Maximum Humidity 86    
Minimum Humidity 61    
Precipitation  
Precipitation 0.01 in - - ()
Sea Level Pressure  
Sea Level Pressure 29.84 in    
Wind  
Wind Speed 8 mph ()    
Max Wind Speed 14 mph    
Max Gust Speed 24 mph    
Visibility 7.3 miles    
Events      
Averages and records for this station are not official NWS values.
T = Trace of Precipitation, MM = Missing Value Source: Averaged Metar Reports

Daily Weather History Graph

Daily Weather History Graph

Search for Another Location

Airport or City:

Trip Planner

Search our weather history database for the weather conditions in past years. The results will help you decide how hot, cold, wet, or windy it might be!

Date:

Astronomy

Dec. 23, 2010 Rise Set
Actual Time 8:05 AM GMT 3:55 PM GMT
Civil Twilight 7:25 AM GMT 4:36 PM GMT
Nautical Twilight 6:42 AM GMT 5:19 PM GMT
Astronomical Twilight 6:01 AM GMT 6:00 PM GMT
Moon 6:45 PM GMT (12/23) 9:30 AM GMT (12/23)
Length of Visible Light 9h 10m
Length of Day
7h 50m
Waning Gibbous, 94% of the Moon is Illuminated
Dec 23
Waning Gibbous
Dec 28
Last Quarter
Jan 4
New
Jan 12
First Quarter
Jan 19
Full

Hourly Weather History & Observations

Time (GMT) Temp. Windchill Dew Point Humidity Pressure Visibility Wind Dir Wind Speed Gust Speed Precip Events Conditions
12:20 AM 32.0 °F 24.8 °F 26.6 °F 80% 29.80 in - NNE 8.1 mph - N/A   Clear
12:50 AM 32.0 °F 25.6 °F 26.6 °F 80% 29.80 in - NNE 6.9 mph - N/A   Clear
1:20 AM 30.2 °F 23.4 °F 26.6 °F 86% 29.80 in - NNE 6.9 mph - N/A   Clear
1:50 AM 30.2 °F 23.4 °F 26.6 °F 86% 29.80 in 6.2 mi North 6.9 mph - N/A   Partly Cloudy
2:20 AM 30.2 °F 23.4 °F 26.6 °F 86% 29.80 in 6.2 mi North 6.9 mph - N/A   Partly Cloudy
2:50 AM 30 °F - 27 °F 85% 29.80 in 6 mi North 8.1 mph - -   Light Haze
2:50 AM 30.2 °F 23.4 °F 26.6 °F 86% 29.80 in 5.6 mi North 6.9 mph - N/A   Unknown
3:20 AM 30.2 °F 22.6 °F 26.6 °F 86% 29.80 in 6.2 mi NNE 8.1 mph - N/A   Partly Cloudy
3:50 AM 30.2 °F 21.3 °F 26.6 °F 86% 29.77 in - North 10.4 mph - N/A   Clear
4:20 AM 30.2 °F 23.4 °F 24.8 °F 80% 29.77 in - North 6.9 mph - N/A   Clear
4:50 AM 30.2 °F 23.4 °F 24.8 °F 80% 29.77 in - North 6.9 mph - N/A   Clear
5:20 AM 30.2 °F 22.6 °F 24.8 °F 80% 29.77 in - North 8.1 mph - N/A   Clear
5:50 AM 30 °F - 24 °F 70% 29.79 in 12 mi North 10.4 mph - -  
5:50 AM 30.2 °F 21.9 °F 23.0 °F 75% 29.77 in - North 9.2 mph - N/A   Clear
6:20 AM 30.2 °F 22.6 °F 24.8 °F 80% 29.77 in 6.2 mi North 8.1 mph - N/A   Scattered Clouds
6:50 AM 30.2 °F 23.4 °F 24.8 °F 80% 29.80 in 6.2 mi NNE 6.9 mph - N/A   Mostly Cloudy
7:20 AM 32.0 °F 24.2 °F 24.8 °F 75% 29.80 in 6.2 mi North 9.2 mph - N/A   Mostly Cloudy
7:50 AM 32.0 °F 24.2 °F 26.6 °F 80% 29.80 in 6.2 mi North 9.2 mph - N/A   Mostly Cloudy
8:20 AM 33.8 °F 26.4 °F 26.6 °F 75% 29.80 in 6.2 mi North 9.2 mph - N/A   Mostly Cloudy
8:50 AM 33.8 °F 26.4 °F 26.6 °F 75% 29.80 in - North 9.2 mph - N/A   Clear
9:20 AM 33.8 °F 27.0 °F 26.6 °F 75% 29.80 in 6.2 mi North 8.1 mph - N/A   Mostly Cloudy
9:50 AM 33.8 °F 27.0 °F 26.6 °F 75% 29.83 in - NNE 8.1 mph - N/A   Clear
10:20 AM 35.6 °F 29.2 °F 26.6 °F 70% 29.83 in - NNE 8.1 mph - N/A   Clear
10:50 AM 35.6 °F 28.6 °F 28.4 °F 75% 29.83 in 6.2 mi NNE 9.2 mph 20.7 mph N/A   Partly Cloudy
11:20 AM 35.6 °F 28.6 °F 28.4 °F 75% 29.83 in 6.2 mi NNE 9.2 mph - N/A   Overcast
11:50 AM 35 °F - 29 °F 69% 29.83 in 12 mi North 11.5 mph - -   Overcast
11:50 AM 35.6 °F 28.6 °F 28.4 °F 75% 29.83 in 6.2 mi NNE 9.2 mph - N/A   Mostly Cloudy
12:20 PM 35.6 °F 28.6 °F 28.4 °F 75% 29.83 in 6.2 mi NNE 9.2 mph - N/A   Mostly Cloudy
12:50 PM 35.6 °F 28.6 °F 28.4 °F 75% 29.83 in 6.2 mi NNE 9.2 mph - N/A   Mostly Cloudy
1:20 PM 35.6 °F 28.0 °F 28.4 °F 75% 29.83 in 6.2 mi NNE 10.4 mph - N/A   Mostly Cloudy
1:50 PM 35.6 °F 28.0 °F 28.4 °F 75% 29.83 in 6.2 mi NNE 10.4 mph - N/A   Mostly Cloudy
2:20 PM 35.6 °F 28.0 °F 28.4 °F 75% 29.83 in 6.2 mi North 10.4 mph - N/A   Mostly Cloudy
2:50 PM 36 °F - 29 °F 65% 29.84 in 15 mi North 13.8 mph - -   Overcast
2:50 PM 35.6 °F 28.0 °F 28.4 °F 75% 29.83 in 6.2 mi NNE 10.4 mph - N/A   Mostly Cloudy
3:20 PM 35.6 °F 27.5 °F 28.4 °F 75% 29.83 in 6.2 mi NNE 11.5 mph - N/A   Mostly Cloudy
3:50 PM 35.6 °F 27.5 °F 28.4 °F 75% 29.86 in 6.2 mi North 11.5 mph 24.2 mph N/A   Mostly Cloudy
4:20 PM 35.6 °F 28.0 °F 28.4 °F 75% 29.86 in 6.2 mi NNE 10.4 mph - N/A   Mostly Cloudy
4:50 PM 35.6 °F 27.5 °F 26.6 °F 70% 29.86 in 6.2 mi NNE 11.5 mph - N/A   Mostly Cloudy
5:20 PM 35.6 °F 27.5 °F 26.6 °F 70% 29.86 in 6.2 mi North 11.5 mph - N/A   Mostly Cloudy
5:50 PM 35 °F - 27 °F 63% 29.88 in 15 mi North 13.8 mph - -   Mostly Cloudy
5:50 PM 35.6 °F 27.5 °F 26.6 °F 70% 29.86 in 6.2 mi NNE 11.5 mph - N/A   Mostly Cloudy
6:20 PM 35.6 °F 28.0 °F 26.6 °F 70% 29.89 in 6.2 mi North 10.4 mph - N/A   Mostly Cloudy
6:50 PM 35.6 °F 27.5 °F 28.4 °F 75% 29.89 in 6.2 mi North 11.5 mph - N/A   Mostly Cloudy
7:20 PM 35.6 °F 27.5 °F 28.4 °F 75% 29.89 in 6.2 mi North 11.5 mph - N/A   Mostly Cloudy
7:50 PM 35.6 °F 28.0 °F 28.4 °F 75% 29.92 in 6.2 mi North 10.4 mph - N/A   Mostly Cloudy
8:20 PM 35.6 °F 28.0 °F 28.4 °F 75% 29.92 in 6.2 mi North 10.4 mph - N/A   Mostly Cloudy
8:50 PM 36 °F - 27 °F 61% 29.91 in 15 mi NNE 11.5 mph - -   Overcast
8:50 PM 35.6 °F 28.6 °F 26.6 °F 70% 29.92 in 6.2 mi NNE 9.2 mph - N/A   Mostly Cloudy
9:20 PM 35.6 °F 28.0 °F 26.6 °F 70% 29.92 in 6.2 mi North 10.4 mph - N/A   Mostly Cloudy
9:50 PM 35.6 °F 28.0 °F 26.6 °F 70% 29.92 in 6.2 mi North 10.4 mph - N/A   Mostly Cloudy
10:20 PM 35.6 °F 28.0 °F 26.6 °F 70% 29.92 in - North 10.4 mph - N/A   Clear
10:50 PM 33.8 °F 26.4 °F 26.6 °F 75% 29.95 in - NNE 9.2 mph - N/A   Clear
11:20 PM 33.8 °F 25.8 °F 26.6 °F 75% 29.95 in 6.2 mi North 10.4 mph - N/A   Partly Cloudy
11:50 PM 34 °F - 26 °F 64% 29.95 in 14 mi North 12.7 mph - -   Partly Cloudy
11:50 PM 33.8 °F 26.4 °F 26.6 °F 75% 29.95 in 6.2 mi North 9.2 mph - N/A   Partly Cloudy